Location: Krasnoyarskiy Pitomnik
(51.1333°N, 71.6167°E)
Time: 08:37:49
(UTC+00:00)

ISS - Pass Details

Date: 02 March 2024
Orbit: 413 x 419 km, 51.6° (Epoch: 13 April)

Event Time Altitude Azimuth Distance (km) Brightness Sun altitude
Exits shadow 00:24:59 33° 272° (W) 744 -3.1 -15.0°
Maximum altitude 00:26:21 69° 198° (SSW) 461 -3.7 -14.8°
Drops below altitude 10° 00:29:44 10° 115° (ESE) 1,517 0.0 -14.3°
Sets 00:31:50 0° 113° (ESE) 2,380 1.2 -13.9°
